Location: Congrier
(47.8099°N, 1.1170°W)
Time: 00:41:38
(UTC+00:00)

NOSS 3-3 (C) - Pass Details

Date: 28 January 2023
Orbit: 770 x 1441 km, 63.4° (Epoch: 23 February)

Event Time Altitude Azimuth Distance (km) Brightness Sun altitude
Rises 17:45:03 0° 236° (SW) 3,338 8.6 -8.1°
Reaches altitude 10° 17:47:24 10° 240° (WSW) 2,465 7.7 -8.5°
Maximum altitude 17:52:59 56° 319° (NW) 1,102 4.5 -9.4°
Drops below altitude 10° 17:59:31 10° 37° (NE) 2,876 6.0 -10.4°
Enters shadow 18:00:38 - 39° (NE) 3,281 6.3 -10.6°
